Вернуться в каталог

COSMOS 2585

АктивенНавигацияPO
NORAD 63288·PAYLOAD·🇷🇺 Russia

Запущен Mar 16, 2025 с Plesetsk Cosmodrome

Loading…

Ближайшие Пролёты (ближайшие 24 часа)

TLE

СвежийSource: Space-Track

Эпоха: Sep 14, 2026, 04:05 UTC

1 63288U 25054A   26257.17041969  .00000026  00000-0  11962-3 0  9992
2 63288  82.4974  23.2404 0024490 198.9862 161.0307 12.42870846 67913

Отслеживайте COSMOS 2585 в реальном времени с AllMySat

Download on the App Store